Location: El Bakhil
(32.7726°N, 5.5387°W)
Time: 03:54:27
(UTC+00:00)

Cosmos 1666 Rocket - Pass Details

Date: 03 March 2021
Orbit: 605 x 632 km, 82.5° (Epoch: 12 April)

Event Time Altitude Azimuth Distance (km) Brightness Sun altitude
Rises 18:53:40 0° 196° (SSW) 2,861 7.2 -7.6°
Reaches altitude 10° 18:55:56 10° 201° (SSW) 1,956 6.4 -8.1°
Maximum altitude 19:00:09 53° 278° (W) 752 4.5 -9.0°
Drops below altitude 10° 19:04:23 10° 356° (N) 1,958 6.2 -9.9°
Sets 19:06:39 0° 1° (N) 2,864 7.0 -10.4°
